Simultaneous Nadir Overpasses (SNOs) Predictions

Prediction of SNOs between LANDSAT-8 and NPP Satellite Orbit:

Table of predicted SNOs for the next 14.0 days since TLE Epoch: 8/9/2016
Index Date (LANDSAT-8) Time (LANDSAT-8) Lat,Lon (LANDSAT-8) SZA (LANDSAT-8 ) Date (NPP) Time (NPP) Lat,Lon (NPP) SZA (NPP ) Distance(km) Time Diff (sec)
1 08/09/2016 22:25:27 -70.20, 20.27 125.35 08/09/2016 22:24:35 -70.17, 20.27 125.36 3.14 52
2 08/09/2016 23:14:55 70.05,-172.31 54.52 08/09/2016 23:15:19 70.07,-172.27 54.54 2.99 24
3 08/10/2016 00:04:39 -69.16, -5.88 126.31 08/10/2016 00:05:45 -69.12, -3.57 126.44 91.43 66
4 08/12/2016 14:41:57 -70.15, 136.09 124.59 08/12/2016 14:41:28 -70.13, 136.11 124.62 3.19 29
5 08/12/2016 15:31:24 70.05, -56.42 55.32 08/12/2016 15:32:12 70.03, -56.43 55.29 2.82 48
6 08/15/2016 06:08:54 70.32, 84.58 56.38 08/15/2016 06:07:41 70.35, 84.23 56.43 13.44 73
7 08/15/2016 06:58:26 -70.10,-108.10 123.82 08/15/2016 06:58:20 -70.08,-108.05 123.84 3.08 6
8 08/15/2016 07:47:53 70.00, 59.39 56.09 08/15/2016 07:49:04 69.98, 59.41 56.07 1.60 71
9 08/17/2016 22:25:25 70.21,-159.70 57.12 08/17/2016 22:24:32 70.20,-159.77 57.13 2.74 53
10 08/17/2016 23:14:55 -70.10, 7.78 122.97 08/17/2016 23:15:14 -70.09, 7.71 122.98 2.97 19
11 08/18/2016 00:04:37 69.16, 174.14 56.15 08/18/2016 00:05:43 69.20, 176.33 56.11 86.37 66
12 08/20/2016 14:41:55 70.15, -43.91 57.94 08/20/2016 14:41:25 70.16, -43.94 57.96 1.97 30
13 08/20/2016 15:31:25 -70.05, 123.58
